Current Version              Previous Version:    01  02  03  04  05  06  07  08  09  10  11  12  13  14  15  16  17  18  19  20  21  22  23  24  25  26  27  28  29  30  
   31  32  33  34  35  36  37  38  39  40  41  42  43  44  45  46  47  48  49  50  51  52  53  54  55  56  57  58  59  60  

[Printable]
318
ASUS44 KLUB 310101
RWRTX
WEST TEXAS WEATHER ROUNDUP
NATIONAL WEATHER SERVICE LUBBOCK TX
800 PM CDT THU OCT 30 2014

NOTE: "FAIR" INDICATES FEW OR NO CLOUDS BELOW 12,000 FEET WITH NO
SIGNIFICANT WEATHER AND/OR OBSTRUCTIONS TO VISIBILITY.

TXZ004-006>008-010-012-014-016-OKZ002-310200-
TEXAS PANHANDLE/OKLAHOMA PANHANDLE

CITY           SKY/WX    TMP DP  RH WIND       PRES   REMARKS
AMARILLO       CLEAR     57  32  38 NE7       30.29R
BORGER         CLEAR     63  27  25 NE7       30.28R
CANADIAN       CLEAR     62  31  31 N3        30.25R
DALHART        CLEAR     55  27  34 NE8       30.33R
DUMAS            N/A     56  29  36 NE7       30.31R
GUYMON         CLEAR     56  30  37 N7        30.29R
HEREFORD       CLEAR     53  36  51 NW6       30.31R
PAMPA          CLEAR     54  31  41 NE8       30.29R HAZE
$$

TXZ026-029-035-045-048-310200-
SOUTHERN PANHANDLE/SOUTH PLAINS/ROLLING PLAINS

CITY           SKY/WX    TMP DP  RH WIND       PRES   REMARKS
CHILDRESS      CLEAR     68  31  25 NE6       30.22R
SEMINOLE       CLEAR     65  48  53 NE9       30.22R
LUBBOCK        CLEAR     57  37  47 NE10      30.24R
PLAINVIEW      CLEAR     57  31  36 NE7       30.25R
SNYDER         CLEAR     69  58  67 NE9       30.18R
$$

TXZ052-054-060>062-072-078-127-140-154-169-310200-
PERMIAN BASIN/CONCHO VALLEY/BIG COUNTRY/EDWARDS PLATEAU

CITY           SKY/WX    TMP DP  RH WIND       PRES   REMARKS
ABILENE        MOCLDY    75  58  55 NE12      30.13R
BIG SPRING     CLEAR     74  57  55 NE12      30.17R
BRADY          CLEAR     73  59  60 E7        30.10R
JUNCTION       PTCLDY    74  55  51 NE3       30.07R
MIDLAND        CLEAR     71  41  33 N10       30.15R
ODESSA         CLEAR     71  39  31 NE10      30.16R
SAN ANGELO     MOCLDY    74  54  49 NE7       30.08R
SONORA         CLEAR     75  57  53 CALM      30.13R
SWEETWATER     MOCLDY    73  57  58 N13       30.19R
WINK           CLEAR     72  40  31 NE10      30.14R
$$

TXZ055-058-074-075-080-082-310200-
FAR WEST/SOUTHWEST MOUNTAINS/TRANS PECOS

CITY           SKY/WX    TMP DP  RH WIND       PRES   REMARKS
ALPINE         CLEAR     65  33  30 E3        30.29R
DRYDEN           N/A     76  57  51 E6        30.08R
EL PASO        PTCLDY    73  34  23 E7        30.16R
FORT STOCKTON  CLEAR     69  34  27 W8        30.15R
MARFA          CLEAR     64  32  29 NE9       30.26R
PECOS          CLEAR     68  45  43 NW6       30.14R
PRESIDIO       FAIR      80  51  36 SW5       30.07S
$$

TXZ014-016-019-021>030-083-310200
TEXAS TECH WEST TEXAS MESONET/TEXAS PANHANDLE/NORTHERN SOUTH PLAINS

CITY           SKY/WX    TMP DP  RH WIND       PRES   REMARKS
ABERNATHY 5ENE   N/A     58  33  39 NE7       30.26R
AMARILLO 9NNE    N/A     52  31  44 E5        30.29R
AMARILLO 7SSE    N/A     51  34  51 NE7       30.30R
AMHERST 1NE      N/A     59  29  31 NE8       30.26R
BOOTLEG 11WNW    N/A     55  27  33 NE7       30.34R
CANADIAN 6E      N/A     56  31  37 N10       30.23R
CAPROCK CYN SP   N/A     64  29  27 N2        30.25R
CHILDRESS 2NNE   N/A     65  31  27 NE8       30.20R
CLARENDON 2WSW   N/A     55  30  38 N2        30.25R
CLAUDE 12SW      N/A     55  33  43 N10       30.28R
DIMMITT 2NE      N/A     51  32  48 N8        30.29R
FLOYDADA 2NNE    N/A     53  30  41 NE7       30.25R
FRIONA 2NE       N/A     55  31  40 NE7       30.31R
GOODLETT 3W      N/A     64  31  29 N8        30.18R
HART 3N          N/A     50  36  59 N8        30.28R
HEREFORD 2NW     N/A     54  32  42 NE3       30.30R
MCLEAN 1E        N/A     63  29  27 N8        30.24R
MEMPHIS 1NE      N/A     61  32  32 N5        30.22R
MULESHOE 2SSW    N/A     60  28  30 NE8       30.28R
OLTON 6S         N/A     56  30  36 NE8       30.26R
PALO DURO SP     N/A     60  32  34 CALM      30.30R
PAMPA 2E         N/A     55  31  39 N5        30.27S
PLAINVIEW 1S     N/A     62  30  30 NE8       30.25R
SILVERTON 7ESE   N/A     58  29  33 NE8       30.26R
TULIA 2ENE       N/A     58  30  34 N7        30.27R
TURKEY 2WSW      N/A     62  30  29 N6        30.23R
UMBARGER 3NNE    N/A     53  31  43 NE5       30.30R
$$

TXZ033>036-039>041-045>048-310200
TEXAS TECH WEST TEXAS MESONET/SOUTH PLAINS

CITY           SKY/WX    TMP DP  RH WIND       PRES   REMARKS
AIKEN 3WSW       N/A     55  34  44 NE9       30.27R
ANDREWS 2NE      N/A     69  46  43 NE9       30.18R
ANTON 6SSW       N/A     60  34  37 NE9       30.25R
BROWNFIELD 2S    N/A     65  47  53 NE9       30.22R
DENVR CTY 7WNW   N/A     63  44  50 NE8       30.23R
GAIL 2ESE        N/A     67  55  64 N7        30.17R
LAMESA 2SE       N/A     67  53  59 NE7       30.19R
LEVELLAND 4S     N/A     61  34  37 NE9       30.24R
LUBBOCK 3WNW     N/A     64  37  37 NE6       30.24R
MORTON 1ENE      N/A     56  33  42 NE8       30.25R
ODONNELL 1N      N/A     66  49  54 NE8       30.20R
PLAINS 3N        N/A     62  41  46 NE8       30.24R
RALLS 1SE        N/A     61  34  35 NE9       30.24R
REESE CENTER     N/A     62  34  35 NE7       30.24R
SEMINOLE 2NNE    N/A     65  47  52 NE8       30.21R
SLATON 2NE       N/A     63  40  43 NE6       30.23R
SNYDER 3E        N/A     68  57  68 NE8       30.16R
SUNDOWN 8SW      N/A     59  37  43 NE7       30.24R
TAHOKA 3NNE      N/A     63  50  61 NE9       30.21R
WOLFFORTH 6SSW   N/A     62  42  48 NE8       30.24R
$$

TXZ031-032-036>038-042>044-310200-
TEXAS TECH WEST TEXAS MESONET/ROLLING PLAINS

CITY           SKY/WX    TMP DP  RH WIND       PRES   REMARKS
ASPERMONT 3NE    N/A     70  51  51 NE6       30.15R
FLUVANNA 3WNW    N/A     67  54  61 NE9       30.18R
GRAHAM 5SSW      N/A     67  51  57 NE14      30.19R
GUTHRIE 10WSW    N/A     66  35  31 NE8       30.17R
HASKELL 1NW      N/A     70  47  43 N10       30.14R
JAYTON 1SSE      N/A     68  51  54 NE6       30.17R
KNOX CITY 3NW    N/A     70  37  30 N10       30.15R
LK A HENRY 1NW   N/A     69  53  56 NE7       30.18R
NORTHFIELD 1S    N/A     65  31  29 NE5       30.21R
ODELL 4ENE       N/A     58  34  39 N6        30.18R
PADUCAH 10SW     N/A     65  31  28 N7        30.19R
POST 1NE         N/A     67  50  54 NE8       30.19R
RRING SPRGS 3N   N/A     61  32  34 N8        30.22R
SEYMOUR 3NW      N/A     67  38  34 N7        30.14R
SPUR 1W          N/A     67  36  32 NE8       30.18R
WEINERT 2NNE     N/A     68  46  44 N8        30.15R
WHITE RVR 6NE    N/A     63  38  38 N10       30.21R
$$

TXZ052-054-060>062-072-078-127-140-154-169-310200-
TEXAS TECH WEST TEXAS MESONET/PERMIAN BASIN/
CONCHO VALLEY/BIG COUNTRY/EDWARDS PLATEAU

CITY           SKY/WX    TMP DP  RH WIND       PRES   REMARKS
COYANOSA 2N      N/A     68  37  32 N8        30.13R
JUNCTION 1SSW    N/A     70  55  58 CALM      30.07R
MERTZON 3NNE     N/A     77  55  45 NE3       30.10R
SAN ANGELO 7NW   N/A     78  54  43 NE5       30.09R
STRLNG CT 4WSW   N/A     75  57  54 N12       30.13R
ST LAWRNCE 5SW   N/A     76  51  41 NE10      30.12R
SWEETWATR 11SW   N/A     70  58  65 NE10      30.17R
WALL 1E          N/A     73  51  46 NE7       30.08R
$$

TXZ055-058-074-075-080-082-310200-
TEXAS TECH WEST TEXAS MESONET/FAR WEST/SOUTHWEST MOUNTAINS/TRANS PECOS

CITY           SKY/WX    TMP DP  RH WIND       PRES   REMARKS
PRSMN GAP BBNP   N/A     80  54  40 NE7       30.10R
GUADLPE MTN NP   N/A     62  20  19 N3        30.31R
$$